Weather History for Galveston, TX

Change the Weather History Date:

Thursday, March 6, 2014

  Actual Average Record
Temperature  
Mean Temperature 55 °F 61 °F  
Max Temperature 60 °F 68 °F 77 °F (1999)
Min Temperature 49 °F 54 °F 27 °F (1989)
Degree Days  
Heating Degree Days 10 5  
Month to date heating degree days 88 31  
Since 1 July heating degree days 1327 919  
Cooling Degree Days 0 1  
Month to date cooling degree days 1 6  
Year to date cooling degree days 8 23  
Growing Degree Days 4 (Base 50)    
Moisture  
Dew Point 46 °F    
Average Humidity 79    
Maximum Humidity 100    
Minimum Humidity 57    
Precipitation  
Precipitation T in 0.12 in 0.90 in (1946)
Month to date precipitation 1.34 0.70  
Year to date precipitation 4.39 7.47  
Snow  
Snow 0.00 in - - ()
Month to date snowfall 0.0  
Since 1 July snowfall T  
Snow Depth 0.00 in    
Sea Level Pressure  
Sea Level Pressure 30.11 in    
Wind  
Wind Speed 14 mph (NNW)    
Max Wind Speed 23 mph    
Max Gust Speed 28 mph    
Visibility 10 miles    
Events      
T = Trace of Precipitation, MM = Missing Value Source: NWS Daily Summary

Daily Weather History Graph

Daily Weather History Graph

Search for Another Location

Airport:

Trip Planner

Search our weather history database for the weather conditions in past years. The results will help you decide how hot, cold, wet, or windy it might be!

Date:

Astronomy

Mar. 06, 2014 Rise Set
Actual Time 6:39 AM CST 6:22 PM CST
Civil Twilight 6:15 AM CST 6:46 PM CST
Nautical Twilight 5:48 AM CST 7:13 PM CST
Astronomical Twilight 5:20 AM CST 7:41 PM CST
Moon 10:13 AM CST (3/6) No Moon Set
Length of Visible Light 12h 30m
Length of Day
11h 42m
Waxing Crescent, 32% of the Moon is Illuminated
Mar 6
Waxing Crescent
Mar 8
First Quarter
Mar 16
Full
Mar 23
Last Quarter
Mar 30
New

Hourly Weather History & Observations

Time (CST) Temp. Dew Point Humidity Pressure Visibility Wind Dir Wind Speed Gust Speed Precip Events Conditions
12:52 AM 50.0 °F 48.0 °F 93% 30.10 in 10.0 mi North 17.3 mph - N/A   Overcast
1:49 AM 50.0 °F 48.2 °F 94% 30.09 in 9.0 mi NNW 15.0 mph - N/A   Overcast
1:52 AM 50.0 °F 48.0 °F 93% 30.09 in 9.0 mi NNW 15.0 mph - N/A   Overcast
2:25 AM 50.0 °F 48.9 °F 96% 30.08 in 8.0 mi North 13.8 mph - N/A   Overcast
2:52 AM 50.0 °F 48.0 °F 93% 30.07 in 8.0 mi North 17.3 mph - N/A   Overcast
3:52 AM 50.0 °F 48.0 °F 93% 30.09 in 7.0 mi NW 10.4 mph - N/A   Overcast
4:52 AM 48.9 °F 48.0 °F 97% 30.09 in 5.0 mi NW 12.7 mph - 0.00 in   Overcast
5:31 AM 48.9 °F 48.0 °F 97% 30.09 in 10.0 mi NNW 16.1 mph - 0.00 in   Overcast
5:52 AM 48.9 °F 46.9 °F 93% 30.10 in 10.0 mi NNW 15.0 mph - 0.00 in   Overcast
6:52 AM 48.9 °F 45.0 °F 86% 30.13 in 10.0 mi NNW 19.6 mph 25.3 mph N/A   Overcast
7:52 AM 50.0 °F 44.1 °F 80% 30.14 in 10.0 mi NNW 18.4 mph - N/A   Clear
8:52 AM 51.1 °F 43.0 °F 74% 30.16 in 10.0 mi NNW 18.4 mph - N/A   Clear
9:52 AM 52.0 °F 44.1 °F 74% 30.17 in 10.0 mi NNW 20.7 mph 26.5 mph N/A   Clear
10:52 AM 55.0 °F 43.0 °F 64% 30.17 in 10.0 mi North 18.4 mph - N/A   Clear
11:52 AM 57.0 °F 43.0 °F 59% 30.16 in 10.0 mi North 18.4 mph - N/A   Clear
12:52 PM 59.0 °F 45.0 °F 60% 30.13 in 10.0 mi North 19.6 mph - N/A   Clear
1:52 PM 57.9 °F 45.0 °F 62% 30.11 in 10.0 mi North 18.4 mph - N/A   Clear
2:52 PM 59.0 °F 46.0 °F 62% 30.08 in 10.0 mi North 17.3 mph - N/A   Clear
3:52 PM 59.0 °F 45.0 °F 60% 30.07 in 10.0 mi North 16.1 mph - N/A   Clear
4:52 PM 59.0 °F 45.0 °F 60% 30.06 in 10.0 mi North 13.8 mph - N/A   Clear
5:52 PM 57.9 °F 45.0 °F 62% 30.06 in 10.0 mi North 12.7 mph - N/A   Clear
6:52 PM 55.0 °F 45.0 °F 69% 30.07 in 10.0 mi NNW 6.9 mph - N/A   Clear
7:52 PM 54.0 °F 46.0 °F 75% 30.09 in 10.0 mi Calm Calm - N/A   Clear
8:52 PM 52.0 °F 46.0 °F 80% 30.10 in 10.0 mi Calm Calm - N/A   Clear
9:52 PM 53.1 °F 46.0 °F 77% 30.12 in 10.0 mi NW 4.6 mph - N/A   Clear
10:52 PM 52.0 °F 45.0 °F 77% 30.11 in 10.0 mi NNW 6.9 mph - N/A   Clear
11:52 PM 51.1 °F 45.0 °F 80% 30.11 in 10.0 mi North 5.8 mph - N/A   Clear